Temp
-12 -12 -12 -12 -12 -12 -13 -13 -13 -13 -13 -13 -13 -14 -14 -14 -14 -14 -14 -14 -14 -14 -14 -14 -14 -14 -14 -14 -14 -13 -13 -13 -13 -13 -13 -13 -13 -13 -13 -13 -13 -13
-12 -12 -12 -12 -13 -13 -13 -13 -13 -13 -14 -14 -14 -14 -14 -14 -14 -15 -15 -15 -15 -15 -15 -14 -14 -14 -14 -14 -14 -14 -14 -13 -13 -13 -13 -13 -13 -13 -13 -13 -13 -13
-13 -13 -13 -13 -13 -13 -13 -13 -13 -13 -13 -14 -14 -15 -15 -15 -15 -15 -15 -15 -15 -15 -15 -15 -15 -14 -14 -14 -14 -14 -14 -14 -14 -13 -13 -13 -13 -13 -13 -13 -13 -13
-13 -13 -13 -14 -14 -14 -13 -13 -13 -13 -13 -14 -14 -15 -15 -15 -15 -15 -15 -15 -15 -15 -15 -15 -15 -15 -15 -15 -15 -14 -14 -14 -14 -14 -14 -14 -14 -13 -13 -13 -13 -13
-14 -14 -14 -14 -14 -14 -14 -14 -14 -14 -14 -14 -15 -15 -15 -15 -16 -16 -16 -16 -16 -16 -15 -15 -15 -15 -15 -15 -15 -15 -15 -15 -14 -14 -14 -14 -14 -13 -13 -13 -13 -13
-14 -14 -14 -14 -14 -14 -14 -14 -15 -15 -15 -15 -15 -15 -15 -15 -15 -16 -16 -16 -16 -15 -15 -15 -15 -15 -15 -15 -15 -15 -15 -15 -15 -14 -14 -14 -14 -14 -13 -13 -13 -14
-14 -14 -14 -14 -14 -14 -14 -15 -15 -15 -15 -16 -16 -15 -15 -15 -16 -16 -16 -16 -16 -15 -15 -15 -16 -16 -16 -16 -16 -15 -15 -15 -15 -15 -15 -14 -14 -14 -14 -14 -14 -14
-14 -14 -14 -14 -14 -14 -15 -15 -15 -16 -16 -16 -16 -16 -16 -16 -16 -16 -16 -16 -16 -15 -15 -15 -15 -15 -16 -16 -16 -16 -15 -15 -15 -15 -15 -15 -15 -15 -15 -14 -14 -15
-14 -14 -14 -14 -14 -14 -15 -15 -15 -15 -16 -16 -16 -16 -16 -16 -16 -16 -16 -16 -15 -15 -15 -15 -15 -15 -15 -16 -16 -16 -16 -15 -15 -15 -15 -15 -15 -15 -15 -15 -15 -15
-15 -14 -14 -14 -14 -14 -15 -15 -15 -15 -15 -16 -16 -16 -16 -16 -16 -16 -16 -16 -16 -15 -15 -15 -15 -15 -15 -15 -16 -16 -16 -15 -15 -15 -15 -15 -15 -15 -15 -15 -16 -16
-15 -15 -15 -15 -15 -15 -15 -15 -15 -15 -15 -16 -16 -16 -16 -16 -16 -16 -16 -16 -16 -16 -16 -16 -16 -15 -15 -15 -15 -15 -15 -15 -15 -15 -15 -15 -16 -16 -16 -16 -16 -16
-16 -15 -15 -15 -15 -15 -15 -15 -15 -16 -16 -16 -16 -16 -16 -16 -16 -16 -16 -16 -16 -16 -16 -16 -16 -16 -15 -15 -15 -15 -15 -16 -16 -16 -16 -16 -16 -17 -17 -17 -17 -17
-16 -16 -16 -16 -16 -16 -16 -16 -16 -16 -16 -17 -17 -17 -17 -16 -16 -16 -16 -16 -16 -16 -16 -16 -16 -16 -16 -16 -16 -16 -16 -16 -17 -17 -16 -16 -17 -17 -17 -17 -17 -17
-16 -16 -16 -16 -16 -16 -16 -16 -16 -16 -16 -17 -17 -17 -17 -16 -16 -16 -16 -16 -16 -16 -16 -16 -16 -16 -16 -16 -16 -16 -16 -16 -17 -17 -17 -17 -17 -17 -18 -18 -18 -18
-17 -16 -16 -16 -16 -16 -16 -16 -16 -16 -17 -17 -17 -17 -17 -17 -16 -16 -16 -16 -16 -16 -16 -16 -17 -17 -17 -17 -17 -17 -16 -16 -17 -17 -17 -17 -17 -17 -18 -18 -18 -18
-17 -17 -17 -17 -17 -17 -16 -16 -16 -17 -17 -17 -17 -17 -17 -17 -17 -17 -17 -16 -16 -16 -16 -16 -17 -17 -17 -17 -17 -17 -17 -17 -17 -17 -17 -17 -17 -17 -18 -18 -18 -18
-17 -17 -17 -17 -17 -17 -17 -17 -17 -17 -17 -17 -18 -17 -17 -17 -18 -18 -18 -17 -17 -17 -17 -17 -17 -17 -18 -18 -17 -17 -17 -17 -17 -17 -18 -18 -17 -18 -18 -18 -18 -19
-18 -18 -18 -18 -18 -18 -18 -18 -18 -17 -17 -18 -18 -18 -18 -18 -18 -18 -18 -18 -18 -18 -17 -17 -18 -18 -18 -18 -18 -18 -18 -18 -18 -18 -18 -18 -18 -18 -18 -18 -18 -19
-18 -18 -18 -18 -18 -18 -18 -18 -18 -18 -17 -18 -18 -18 -18 -18 -18 -18 -18 -18 -18 -18 -18 -18 -18 -18 -18 -18 -18 -18 -18 -18 -18 -18 -18 -18 -18 -18 -18 -18 -19 -19
-19 -19 -19 -19 -19 -19 -19 -18 -18 -18 -18 -18 -18 -18 -18 -18 -18 -18 -18 -18 -18 -18 -18 -18 -18 -18 -19 -19 -18 -18 -19 -19 -19 -18 -18 -19 -19 -18 -18 -19 -19 -19
-19 -20 -20 -20 -19 -19 -19 -19 -19 -19 -18 -18 -18 -18 -18 -18 -18 -18 -18 -18 -19 -18 -18 -18 -19 -19 -19 -19 -19 -19 -19 -19 -19 -19 -19 -19 -19 -19 -19 -19 -19 -19
-20 -20 -20 -20 -20 -20 -20 -19 -19 -19 -19 -19 -19 -19 -19 -19 -19 -19 -19 -19 -19 -19 -19 -19 -19 -19 -19 -19 -19 -19 -19 -19 -19 -19 -19 -19 -19 -19 -19 -19 -19 -20
-20 -20 -20 -20 -20 -20 -20 -20 -19 -19 -19 -19 -19 -19 -19 -19 -19 -19 -19 -19 -19 -19 -19 -19 -19 -19 -19 -19 -19 -19 -19 -19 -19 -19 -19 -20 -20 -19 -19 -19 -20 -20
-20 -20 -20 -20 -20 -20 -20 -20 -20 -19 -19 -19 -20 -20 -20 -20 -20 -19 -19 -20 -20 -20 -20 -20 -20 -20 -19 -19 -19 -19 -19 -19 -19 -20 -20 -20 -20 -19 -19 -20 -20 -20
-20 -20 -20 -20 -20 -20 -20 -20 -20 -20 -20 -20 -20 -20 -20 -20 -20 -20 -20 -20 -20 -20 -20 -20 -20 -20 -20 -20 -20 -20 -20 -20 -20 -20 -20 -20 -19 -19 -20 -20 -20 -21
-20 -20 -20 -20 -20 -20 -20 -20 -20 -20 -20 -20 -21 -20 -20 -20 -20 -20 -20 -20 -20 -20 -20 -20 -20 -20 -20 -20 -20 -20 -20 -20 -20 -20 -20 -20 -20 -20 -20 -20 -21 -21
Height
5691 5691 5691 5691 5691 5691 5691 5691 5690 5691 5690 5690 5690 5690 5691 5691 5691 5692 5693 5693 5693 5693 5693 5693 5693 5692 5692 5692 5691 5691 5691 5691 5691 5691 5691 5691 5691 5691 5691 5691 5691 5691
5684 5683 5683 5683 5683 5683 5683 5683 5683 5683 5683 5683 5683 5683 5683 5683 5684 5685 5685 5685 5686 5685 5685 5685 5685 5685 5684 5684 5684 5684 5684 5684 5684 5684 5684 5683 5683 5683 5683 5683 5683 5683
5676 5676 5676 5675 5675 5675 5675 5675 5676 5676 5676 5676 5676 5676 5676 5676 5676 5676 5676 5677 5677 5677 5677 5677 5677 5677 5677 5677 5677 5677 5676 5676 5676 5676 5676 5676 5675 5675 5675 5674 5674 5674
5667 5667 5668 5667 5667 5668 5668 5668 5668 5668 5668 5668 5668 5668 5668 5668 5668 5668 5669 5669 5669 5669 5669 5669 5669 5669 5669 5669 5669 5669 5669 5669 5669 5669 5669 5668 5667 5667 5667 5667 5666 5666
5659 5659 5659 5659 5659 5659 5660 5660 5660 5659 5659 5660 5660 5660 5660 5661 5661 5661 5661 5661 5661 5661 5661 5661 5661 5661 5661 5661 5661 5661 5661 5661 5661 5661 5661 5660 5659 5659 5659 5659 5659 5658
5650 5650 5650 5651 5651 5651 5652 5652 5652 5651 5651 5651 5651 5651 5652 5652 5653 5653 5653 5653 5652 5652 5652 5653 5653 5653 5653 5653 5653 5653 5653 5652 5652 5652 5652 5652 5651 5651 5651 5651 5651 5651
5641 5641 5641 5642 5643 5643 5644 5644 5643 5643 5643 5643 5643 5643 5644 5644 5644 5644 5644 5643 5643 5643 5643 5643 5644 5644 5645 5645 5646 5645 5645 5644 5644 5644 5644 5643 5643 5643 5643 5643 5643 5643
5630 5631 5632 5633 5634 5635 5635 5635 5635 5634 5634 5634 5635 5635 5635 5635 5635 5634 5634 5634 5634 5634 5634 5634 5634 5635 5635 5637 5637 5637 5636 5636 5635 5635 5635 5635 5634 5634 5634 5634 5634 5634
5622 5623 5623 5624 5625 5625 5625 5626 5625 5625 5625 5625 5626 5626 5626 5626 5626 5624 5624 5624 5624 5624 5624 5624 5625 5625 5626 5627 5628 5628 5627 5626 5626 5626 5626 5627 5626 5625 5625 5625 5626 5626
5618 5617 5616 5617 5618 5617 5617 5617 5617 5617 5618 5618 5618 5618 5618 5618 5616 5616 5615 5615 5616 5616 5615 5615 5615 5616 5617 5618 5618 5618 5617 5617 5617 5617 5617 5618 5618 5617 5617 5617 5617 5617
5611 5611 5610 5611 5611 5611 5611 5610 5609 5610 5610 5611 5611 5610 5610 5609 5608 5608 5607 5607 5607 5607 5606 5606 5606 5606 5607 5608 5608 5608 5609 5609 5609 5608 5609 5609 5609 5609 5609 5609 5609 5609
5602 5601 5600 5601 5601 5602 5602 5602 5602 5602 5603 5603 5602 5601 5601 5601 5600 5600 5600 5599 5599 5598 5598 5598 5597 5597 5598 5599 5600 5600 5601 5601 5601 5600 5600 5601 5601 5601 5601 5601 5601 5600
5589 5589 5589 5590 5591 5592 5592 5593 5593 5594 5594 5594 5593 5591 5591 5591 5591 5591 5591 5591 5590 5590 5590 5590 5589 5589 5589 5590 5591 5592 5593 5593 5593 5593 5592 5592 5593 5593 5593 5593 5592 5591
5576 5577 5578 5579 5580 5581 5582 5583 5584 5584 5584 5584 5583 5583 5582 5582 5581 5581 5581 5581 5582 5582 5582 5581 5580 5581 5581 5582 5582 5583 5583 5584 5584 5584 5584 5584 5584 5585 5585 5585 5584 5583
5564 5565 5567 5568 5568 5569 5570 5571 5572 5573 5573 5573 5574 5574 5573 5572 5572 5572 5571 5572 5573 5573 5573 5572 5572 5573 5573 5573 5573 5573 5574 5575 5576 5576 5575 5576 5576 5576 5576 5576 5575 5574
5552 5554 5555 5556 5557 5558 5559 5559 5560 5561 5562 5563 5564 5564 5563 5563 5562 5562 5563 5563 5564 5564 5563 5563 5564 5565 5565 5565 5563 5563 5564 5564 5566 5567 5567 5567 5568 5567 5567 5567 5566 5565
5541 5542 5543 5545 5546 5546 5547 5547 5548 5549 5550 5551 5552 5553 5553 5552 5552 5553 5553 5554 5554 5554 5553 5554 5555 5556 5556 5555 5554 5554 5554 5554 5555 5557 5557 5558 5558 5559 5558 5557 5556 5556
5529 5531 5532 5533 5533 5534 5534 5535 5536 5537 5539 5539 5540 5541 5540 5540 5541 5542 5543 5542 5542 5542 5543 5544 5545 5545 5545 5545 5545 5545 5544 5545 5545 5547 5548 5549 5549 5549 5548 5548 5547 5546
5518 5518 5520 5520 5521 5521 5522 5522 5523 5525 5526 5527 5528 5528 5528 5529 5531 5532 5532 5531 5531 5532 5532 5533 5533 5534 5535 5535 5536 5535 5535 5535 5536 5537 5538 5539 5539 5539 5538 5537 5537 5535
5506 5506 5507 5507 5508 5509 5510 5511 5512 5513 5514 5515 5515 5516 5517 5518 5519 5520 5521 5520 5520 5520 5520 5521 5522 5523 5525 5525 5526 5525 5525 5525 5525 5527 5528 5529 5529 5529 5528 5527 5527 5526
5495 5495 5495 5495 5496 5498 5499 5500 5501 5503 5504 5504 5504 5504 5505 5505 5506 5508 5509 5509 5509 5509 5509 5510 5512 5513 5515 5515 5515 5514 5514 5514 5515 5517 5518 5518 5518 5518 5518 5518 5517 5516
5482 5483 5483 5484 5485 5486 5487 5488 5489 5491 5492 5492 5492 5493 5493 5493 5494 5496 5497 5497 5498 5499 5500 5501 5502 5503 5504 5505 5504 5503 5503 5504 5505 5507 5507 5508 5508 5508 5508 5508 5508 5507
5468 5469 5471 5472 5473 5474 5475 5475 5476 5478 5479 5479 5480 5482 5482 5483 5483 5484 5485 5486 5487 5489 5490 5491 5492 5492 5493 5494 5493 5492 5493 5494 5496 5497 5497 5497 5498 5499 5499 5498 5498 5498
5454 5455 5456 5458 5459 5460 5461 5462 5464 5465 5467 5467 5468 5470 5471 5471 5471 5472 5474 5475 5477 5478 5479 5480 5481 5482 5482 5482 5482 5481 5482 5486 5487 5487 5487 5488 5489 5489 5489 5488 5488 5488
5440 5441 5442 5444 5446 5447 5447 5449 5451 5453 5455 5456 5457 5459 5460 5459 5459 5460 5462 5464 5465 5466 5467 5468 5470 5471 5471 5471 5471 5470 5473 5477 5478 5477 5478 5479 5479 5480 5480 5479 5478 5478
5427 5428 5429 5431 5433 5435 5436 5437 5439 5441 5442 5443 5445 5447 5448 5449 5450 5450 5451 5452 5452 5454 5455 5457 5459 5460 5461 5461 5460 5461 5465 5469 5469 5468 5469 5469 5469 5470 5470 5469 5469 5469
Wind_Speed
45 47 48 49 49 48 48 47 47 46 45 45 44 44 45 46 46 46 46 46 46 46 47 48 49 49 50 51 52 52 53 53 53 53 53 53 52 51 51 51 51 51
47 49 50 50 50 50 49 49 50 49 48 47 46 45 46 46 46 47 47 48 48 49 50 50 50 51 51 52 53 53 53 53 54 54 54 54 53 53 52 52 52 52
50 51 51 51 51 51 51 52 52 52 51 50 48 48 48 48 48 49 49 50 50 51 51 51 51 52 52 52 53 53 53 54 54 54 54 54 55 55 54 55 55 55
52 53 53 53 52 52 52 53 53 53 53 52 51 51 51 51 51 51 51 52 52 52 52 52 53 53 53 53 53 53 54 54 54 54 55 55 56 56 56 57 58 59
54 55 55 55 54 53 53 53 54 54 54 54 54 54 55 55 55 55 55 55 55 55 55 55 54 54 54 53 53 54 55 55 55 55 55 56 57 58 58 59 60 61
57 57 58 57 57 56 55 54 54 55 55 56 56 57 58 59 59 59 59 59 59 59 58 58 57 56 55 54 54 54 55 55 55 56 56 57 58 59 59 60 61 62
61 61 61 61 60 60 58 57 56 56 56 56 57 58 59 61 61 62 62 62 62 62 62 61 60 59 58 57 56 56 56 56 56 57 57 58 60 61 61 61 62 63
64 65 65 64 64 63 61 57 56 56 57 58 59 60 60 61 62 63 63 64 64 64 64 64 64 63 63 62 60 59 58 58 58 58 58 59 61 62 62 62 62 62
66 68 69 68 67 67 64 60 57 57 58 60 60 60 61 61 62 63 64 65 66 66 67 67 67 67 66 65 63 62 61 60 60 60 60 60 61 62 62 62 61 61
66 68 70 70 70 69 68 65 64 63 62 62 63 63 63 63 63 65 66 68 68 69 70 70 71 70 68 65 63 62 62 62 63 62 62 61 61 62 62 62 61 61
65 68 70 70 71 72 71 70 70 69 67 64 64 65 65 66 66 68 69 70 71 71 72 72 71 70 67 65 64 63 63 64 64 64 63 63 62 61 61 61 60 61
63 67 69 71 72 74 75 75 74 74 72 68 67 68 69 69 70 71 71 72 72 72 72 72 70 69 67 65 64 64 64 65 65 65 65 64 63 61 61 61 61 62
65 67 69 69 70 73 75 77 77 76 74 72 71 72 72 71 71 72 71 70 70 70 69 69 69 68 67 65 64 63 63 64 65 67 67 66 64 62 62 62 62 64
71 71 71 70 70 71 72 74 75 76 76 75 74 74 74 73 72 71 70 69 68 67 67 67 67 66 66 65 64 64 63 63 65 67 69 68 66 65 63 63 64 65
76 75 74 74 73 73 73 74 75 76 76 76 75 74 74 75 73 71 70 69 68 67 67 67 66 64 64 64 64 65 66 66 66 68 70 69 69 68 67 66 66 65
81 79 77 77 77 77 78 78 77 77 77 77 76 73 73 75 75 73 72 71 70 69 70 69 67 65 63 63 65 67 69 71 70 70 71 70 70 71 71 69 66 64
82 81 80 78 78 78 79 80 79 79 79 79 78 75 74 74 75 75 75 74 74 73 73 72 69 66 63 64 66 69 72 73 72 71 71 70 70 72 72 69 66 64
82 82 81 80 79 78 78 78 78 78 78 80 81 80 79 77 77 77 78 78 78 78 77 75 71 66 64 65 67 71 73 73 72 71 70 70 71 71 70 68 65 62
82 81 80 79 79 77 76 75 75 75 76 79 82 84 84 83 81 81 81 82 82 81 80 77 72 68 65 66 69 72 73 73 73 72 71 71 72 70 68 67 64 62
83 81 77 75 74 73 72 73 74 76 78 80 82 85 87 87 86 84 85 85 84 83 81 77 73 69 67 68 70 72 73 73 74 74 73 73 72 69 67 65 64 64
84 81 77 73 72 71 72 74 75 78 80 82 85 87 89 89 87 86 85 84 83 81 79 75 71 69 69 70 72 73 74 74 75 76 75 74 72 68 65 64 65 66
84 83 81 78 76 76 76 77 78 80 82 85 86 88 89 88 87 85 85 83 79 75 75 73 71 71 71 71 73 75 75 75 76 76 75 74 70 65 62 63 66 66
84 86 85 84 82 81 79 79 81 83 85 87 88 88 88 87 86 84 83 80 75 72 73 73 72 71 71 71 73 74 75 76 76 75 73 70 64 60 61 65 66 63
85 86 87 86 83 81 81 82 84 86 88 88 86 84 84 83 83 81 78 75 73 72 73 72 71 71 72 73 74 75 75 75 73 71 69 64 60 60 65 66 63 59
88 88 89 87 84 82 84 86 87 87 86 84 81 78 78 79 80 79 77 75 75 76 75 75 74 74 75 75 76 76 74 71 69 68 65 62 61 63 65 64 60 57
91 91 90 89 86 84 83 83 84 82 81 79 76 74 74 76 77 78 77 77 78 78 77 76 75 74 74 73 73 72 71 69 69 67 64 63 65 64 62 60 56 54
Wind_Direction
261 262 263 263 264 264 264 264 264 263 263 262 261 261 261 261 261 263 264 264 264 264 264 265 266 267 269 270 271 272 273 274 275 276 277 278 278 278 279 279 280 281
258 258 259 259 259 260 261 262 262 263 263 263 262 261 260 261 262 262 263 263 264 265 266 268 270 271 271 271 272 273 274 274 275 276 277 277 278 278 279 280 281 282
256 256 256 256 256 257 258 259 260 261 262 263 263 263 263 262 262 263 264 266 267 269 271 272 274 274 274 274 274 275 275 275 275 276 277 278 279 279 280 281 283 284
255 255 255 255 255 256 258 259 259 259 260 262 264 265 265 265 266 266 267 268 269 271 272 272 273 274 275 275 276 277 277 277 277 278 279 279 279 280 281 282 283 283
255 255 255 255 255 256 257 258 258 258 259 260 262 264 265 267 268 268 269 269 270 270 270 270 271 272 273 275 276 277 277 278 278 278 278 278 278 279 279 280 281 281
254 254 254 254 254 255 256 257 257 257 258 258 259 260 262 264 265 266 268 268 268 268 268 269 269 270 272 273 275 276 277 278 278 277 277 277 277 277 278 278 279 279
252 252 252 253 254 255 256 257 257 258 259 259 259 260 260 261 263 264 265 266 266 267 267 267 268 269 270 272 274 275 276 276 276 276 276 276 276 276 276 276 277 277
248 249 250 250 252 254 255 257 259 260 261 262 262 262 262 262 263 264 265 266 266 267 267 268 268 269 270 271 272 273 274 275 275 275 275 275 275 275 275 275 275 275
247 248 248 248 250 252 254 256 259 262 264 265 264 264 264 264 264 265 266 266 267 267 268 269 269 270 271 271 271 270 272 274 274 274 274 274 274 274 274 274 274 274
249 250 250 249 250 252 254 256 259 263 266 267 265 263 263 263 264 264 265 266 266 267 268 268 269 270 271 271 271 270 271 273 273 273 273 272 272 273 273 273 272 271
251 252 253 253 252 252 255 257 260 263 267 268 265 263 261 260 261 262 263 264 264 265 266 267 269 270 270 270 270 269 269 270 271 271 271 271 271 271 272 272 271 269
254 252 252 253 252 251 253 256 259 262 265 267 267 265 262 260 260 261 262 262 263 264 265 266 267 267 267 267 266 265 266 267 269 270 270 271 271 271 271 271 269 267
256 254 253 254 255 253 253 254 257 260 263 264 266 265 264 263 263 262 262 262 262 263 264 264 264 263 263 263 263 263 265 267 269 270 270 270 270 270 269 268 267 266
255 255 255 257 258 258 257 257 257 258 260 261 262 263 263 263 262 262 263 263 263 263 263 262 262 262 262 263 264 265 266 268 269 270 271 271 271 269 268 266 265 265
257 256 256 257 258 259 259 259 259 259 259 260 260 261 261 260 259 260 261 262 263 263 263 263 262 263 265 266 268 269 270 270 270 270 271 272 272 270 268 266 265 265
257 257 257 257 257 258 258 258 259 260 261 260 260 260 260 258 258 259 259 260 261 261 262 262 263 265 267 268 270 272 273 272 272 271 271 271 271 270 268 266 266 267
256 256 256 256 257 257 258 259 260 261 262 261 261 261 260 259 257 259 261 262 263 262 262 262 264 266 267 268 270 272 272 271 271 270 270 270 269 268 267 266 267 268
255 255 255 255 256 257 258 260 261 262 262 262 261 261 261 261 259 260 263 265 266 266 265 265 265 266 266 267 269 269 268 267 268 268 268 267 267 267 267 266 266 267
255 255 254 254 255 256 258 260 262 263 263 263 262 261 262 263 264 264 266 267 268 268 267 266 266 266 267 268 268 267 266 266 267 267 267 265 264 265 266 265 264 265
258 258 256 255 256 257 260 262 264 264 264 264 264 263 264 265 266 267 268 269 270 269 267 265 265 267 269 269 267 266 266 267 268 268 267 265 264 264 266 264 264 265
260 260 259 258 258 260 263 265 266 266 264 263 263 265 266 267 268 268 269 271 272 270 266 265 267 269 270 268 266 265 265 267 268 268 267 266 264 264 264 265 265 264
261 260 260 259 261 263 265 267 268 269 267 264 263 264 266 268 269 270 270 272 272 271 269 268 269 269 268 267 266 265 265 266 266 266 266 265 264 263 264 265 263 262
263 263 262 262 264 266 267 268 270 270 269 267 265 265 266 268 269 269 269 269 270 270 270 270 270 269 268 268 268 266 267 268 267 266 264 263 263 264 264 263 261 261
265 266 266 266 267 268 269 270 270 270 268 266 266 267 266 266 267 268 268 268 268 269 269 269 268 268 268 268 267 267 267 267 265 263 263 263 263 263 262 260 259 263
265 267 268 268 268 268 269 269 268 266 265 264 265 265 264 265 266 268 268 267 266 266 266 265 265 265 266 266 267 267 266 264 262 262 263 262 262 262 259 258 260 266
265 265 265 265 265 265 265 265 264 263 263 265 265 264 262 262 264 266 267 266 265 264 264 265 266 267 268 269 269 268 266 264 262 262 262 261 261 259 256 257 264 270